Location: Csohesd
(46.2500°N, 22.6167°E)
Time: 12:18:56
(UTC+00:00)

Cosmos 1844 - Pass Details

Date: 21 October 2021
Orbit: 822 x 868 km, 70.9° (Epoch: 06 December)

Event Time Altitude Azimuth Distance (km) Brightness Sun altitude
Rises 17:11:59 0° 337° (NNW) 3,464 7.2 -17.9°
Reaches altitude 10° 17:14:38 10° 345° (NNW) 2,521 6.4 -18.3°
Maximum altitude 17:20:04 39° 54° (NE) 1,270 4.2 -19.3°
Enters shadow 17:21:19 35° 83° (E) 1,363 4.2 -19.5°
